Regional Weather Roundup
Issued by NWS

Home | Current Version | Previous Version | Graphics & Text | Print | Product List | Glossary On
Versions: 1 2 3 4 5 6 7 8 9 10 11 12 13 14 15 16 17 18 19 20 21 22 23 24 25 26 27 28 29 30 31 32 33 34 35 36 37 38 39 40 41 42 43 44 45 46 47 48 49 50
822
ASUS43 KMPX 230801
RWRMN
WEATHER ROUNDUP FOR MINNESOTA
NATIONAL WEATHER SERVICE TWIN CITIES/CHANHASSEN MN
300 AM CDT TUE MAY 23 2017


NOTE: "FAIR" INDICATES FEW OR NO CLOUDS BELOW 12,000 FEET WITH NO
SIGNIFICANT WEATHER AND/OR OBSTRUCTIONS TO VISIBILITY. N/A MEANS
CURRENT SKY AND/OR WEATHER CONDITIONS ARE NOT AVAILABLE.

MNZ060>063-068>070-230900-
   Twin Cities Metro

CITY           SKY/WX    TMP DP  RH WIND       PRES   REMARKS
TWIN CITIES    CLOUDY    53  47  79 SW3       29.81F
ST PAUL        CLOUDY    51  50  96 CALM      29.82F
CRYSTAL        CLOUDY    51  40  65 NW7       29.80F
BLAINE         MOCLDY    52  45  76 CALM      29.81S
LAKEVILLE      CLOUDY    48  48 100 CALM      29.81F
EDEN PRAIRIE   CLOUDY    53  43  68 NW5       29.80F
SOUTH ST PAUL  MOCLDY    51  50  94 CALM      29.81F
LAKE ELMO      DRIZZLE   50  48  93 CALM      29.82F
$$
MNZ001>005-007-008-013>017-022>024-027-028-230900-
   Northwest Minnesota

CITY           SKY/WX    TMP DP  RH WIND       PRES   REMARKS
BEMIDJI        LGT RAIN  45  45  99 N6        29.85S
HALLOCK        CLOUDY    48  45  87 N12       29.96S
ROSEAU         CLOUDY    46  43  87 N13       29.93R
WARROAD        CLOUDY    46  43  87 N14G23    29.93R
CROOKSTON      DRIZZLE   46  46 100 N12       29.92F
FOSSTON        CLOUDY    45  43  93 N12       29.88F
DETROIT LAKES  DRIZZLE   45  45 100 N10       29.88S
MOORHEAD       RAIN      46  45  93 N14       29.90F
PARK RAPIDS    CLOUDY    46  43  89 NW7       29.84S
MAHNOMEN       CLOUDY    46  44  96 N9        29.88S
$$
MNZ006-009>011-018-025>026-230900-
   North Central Minnesota

CITY           SKY/WX    TMP DP  RH WIND       PRES   REMARKS
BAUDETTE       CLOUDY    46  45  96 N12       29.89R
FLAG ISLAND    CLOUDY    48  43  81 NE18G25   29.92S
INTL FALLS     LGT RAIN  48  46  93 N7        29.85S FOG
WASKISH        CLOUDY    46  45  93 N6        29.86S FOG
BIG FORK       CLOUDY    45  45 100 CALM      29.84S FOG
LONGVILLE      CLOUDY    45  45 100 CALM      29.83S
GRAND RAPIDS   CLOUDY    43  43 100 CALM      29.85S
CRANE LAKE     CLOUDY    36  34  93 CALM      29.86S
ORR            MOCLDY    43  39  87 CALM      29.81F
COOK           CLOUDY    41  39  93 CALM      29.84S
WALKER         DRIZZLE   44  43  98 N5        29.83F
$$
MNZ012-019>021-037-230900-
   Northeast Minnesota

CITY           SKY/WX    TMP DP  RH WIND       PRES   REMARKS
DULUTH         CLOUDY    47  44  90 N6        29.80F
ELY            CLEAR     36  36 100 CALM      29.83S FOG
HIBBING        MOCLDY    35  35 100 N3        29.82F FOG
EVELETH        FOG       37  36  93 CALM      29.83F VSB 1/2
DULUTH HARBOR  CLOUDY    48  46  93 CALM      29.82S
TWO HARBORS    CLOUDY    50  45  81 N3        29.79F
SILVER BAY     CLOUDY    45  45 100 CALM      29.80S
GRAND MARAIS     N/A     48  43  82 N10       29.80F
G MARAIS ARPRT CLOUDY    37  36  93 NW7       29.82S
$$
MNZ029>031-032-039>041-046>048-054>057-064-230900-
   West Central Minnesota

CITY           SKY/WX    TMP DP  RH WIND       PRES   REMARKS
FERGUS FALLS   DRIZZLE   46  46 100 N10       29.87S
WHEATON        DRIZZLE   46  45  93 NW8       29.90S
MORRIS         CLOUDY    46  46 100 NW9       29.86S
ALEXANDRIA     LGT RAIN  46  45  96 NW6       29.85F
ELBOW LAKE     DRIZZLE   46  46  98 NW7       29.87S
WADENA         LGT RAIN  45  43  93 NW5       29.84F
GLENWOOD       DRIZZLE   45  45 100 NW5       29.85F
APPLETON       CLOUDY    48  45  87 N7        29.87S
BENSON         LGT RAIN  46  45  93 N6        29.87F
ORTONVILLE     CLOUDY    48  45  87 NW10      29.87F
MADISON        CLOUDY    50  48  93 N12       29.87F
WILLMAR        RAIN      46  46 100 NW7       29.86F
$$
MNZ033>034-036-042>043-049>051-058-059-230900-
   Central Minnesota

CITY           SKY/WX    TMP DP  RH WIND       PRES   REMARKS
ST CLOUD       CLOUDY    47  45  93 N6        29.82F
SAUK CENTRE    DRIZZLE   45  43  93 CALM      29.84F
PAYNESVILLE    LGT RAIN  45  46 100 N3        29.84F
AITKIN         CLOUDY    45  43  93 CALM      29.81F
PINE RIVER     CLOUDY    45  45 100 CALM      29.87S
BRAINERD       CLOUDY    45  44  97 NW5       29.83F
STAPLES        CLOUDY    43  43 100 NW3       29.84F
LONG PRAIRIE   DRIZZLE   43  43 100 W3        29.84F
LITTLE FALLS   LGT RAIN  45  43  93 NW3       29.84S
LITCHFIELD     CLOUDY    50  46  87 NW6       29.83F
BUFFALO        CLOUDY    48  42  81 NW3       29.82F
MAPLE LAKE     CLOUDY    48  45  87 NW5       29.82F
HUTCHINSON     CLOUDY    50  46  87 W8        29.84S
$$
MNZ037-044-045-052-053-230900-
   East Central Minnesota

CITY           SKY/WX    TMP DP  RH WIND       PRES   REMARKS
PRINCETON      CLOUDY    45  43  93 NW5       29.82S
MORA           CLOUDY    43  43 100 CALM      29.83F
CAMBRIDGE      CLOUDY    45  41  87 CALM      29.80S
RUSH CITY      MOCLDY    44  43  97 CALM      29.82S
MOOSE LAKE     CLOUDY    45  43  93 CALM      29.80F
HINCKLEY       PTSUNNY   43  43 100 NW3       29.81F
CLOQUET        CLOUDY    46  43  87 N3        29.81F
MCGREGOR       CLOUDY    45  45 100 NW3       29.82F
$$
MNZ071>073-080-081-089-090-097-098-230900-
   Southwest Minnesota

CITY           SKY/WX    TMP DP  RH WIND       PRES   REMARKS
MONTEVIDEO     CLOUDY    46  43  87 N5        29.86F
CANBY          CLOUDY    48  46  94 CALM      29.88F
MARSHALL       LGT RAIN  47  45  93 NW8       29.87F
REDWOOD FALLS  CLOUDY    48  42  80 NW8       29.84F
OLIVIA         CLOUDY    50  45  81 NW12      29.84F
PIPESTONE      CLOUDY    46  41  81 NW7       29.87F
WINDOM         MOCLDY    48  45  87 NW9       29.85F
WORTHINGTON    LGT RAIN  48  44  86 NW13      29.87F
JACKSON        CLOUDY    48  45  87 CALM      29.85F
TRACY          DRIZZLE   48  46  91 NW12      29.87S
SLAYTON        CLOUDY    46  44  92 NW13      29.88F
$$
MNZ065>067-074>077-082>085-091>093-230900-
   South Central Minnesota

CITY           SKY/WX    TMP DP  RH WIND       PRES   REMARKS
MANKATO        CLOUDY    50  47  89 NW8       29.83F
NEW ULM        CLOUDY    48  45  87 NW12      29.83F
ST JAMES       CLOUDY    50  46  87 W10       29.85S
FAIRMONT       CLOUDY    50  47  89 NW8       29.84F
GLENCOE        CLOUDY    51  48  88 W6        29.82F
FARIBAULT      CLOUDY    52  46  82 W3        29.81F
OWATONNA       CLOUDY    52  46  82 NW3       29.81F
WASECA         CLOUDY    50  46  87 W6        29.82F
ALBERT LEA     CLOUDY    52  48  87 CALM      29.81F
$$
MNZ078>079-086>088-094>096-230900-
   Southeast Minnesota

CITY           SKY/WX    TMP DP  RH WIND       PRES   REMARKS
ROCHESTER      CLOUDY    50  49  96 NW12      29.80F
RED WING       DRIZZLE   52  46  82 N3        29.80S
STANTON        CLOUDY    51  47  86 CALM      29.80F
DODGE CENTER   CLOUDY    48  46  93 CALM      29.81S
WINONA         CLOUDY    54  52  94 CALM      29.77F
AUSTIN         RAIN      50  46  87 NW7       29.81S
PRESTON        PTCLDY    49  47  91 NW7       29.78F
$$
ABBREVIATIONS USED IN REMARKS
   TC - TEMPERATURES IN CELSIUS
  WCI - WIND CHILL INDEX
   HX - HEAT INDEX
  VSB - VISIBILITY
$$




USA.gov is the U.S. government's official web portal to all federal, state and local government web resources and services.